Погода в Скале

Греция     37°19′24″N   26°32′38″E
темп.,
°C
ветер,
м/с
пор.,
м/с
влажн.,
%
обл.,
%
осадки,
мм/ч
давл.,
гПа
погр.,
м
29 мая, вс
вс2900:00+22юв22770 0.0 101011
03:00+22юв338298 0.0 100929
06:00+22вюв44785 0.0 100835
09:00+22юв697794 0.0 1009103
12:00+22ююв9147299 0.0 1009173
15:00+22ю7127458 0.0 1009181
18:00+22ю81278100 0.0 1008182
21:00+21ю56860 0.0 100959
30 мая, пн
пн3000:00+21ю45840 0.0 101066
03:00+21зюз56810 0.0 1010111
06:00+21юз56825 0.0 1010136
09:00+21юз68860 0.0 1011237
12:00+21ююз57890 0.0 1012291
15:00+21юз56880 0.0 1013316
18:00+21зюз44860 0.0 1012236
21:00+21сз22840 0.0 101216
31 мая, вт
вт3100:00+21зсз23770 0.0 101321
03:00+21зсз34794 0.0 101363
06:00+21с45774 0.0 101398
09:00+21ссз68800 0.0 1013183
12:00+21ссз811750 0.0 1013197
15:00+22сз577631 0.0 101387
18:00+23сз8127212 0.0 1011205
21:00+22ссз914752 0.0 1011210
1 июня, ср
ср100:00+22ссз1115823 0.0 1011196
03:00+22ссз1015750 0.0 1011236
06:00+22ссз10157988 0.0 1010280
09:00+21ссз1015790 0.0 1010347
12:00+22ссз1116770 0.0 1010293
15:00+22ссз1015740 0.0 1010164
18:00+23сз1118682 0.0 1009227
21:00+22юв5684100 0.0 101182
2 июня, чт
чт200:00+21с12821 0.0 101213
03:00+22ссз810810 0.0 1010182
06:00+21ссз812810 0.0 1010253
09:00+21ссз710810 0.0 1011265
12:00+21ссз810790 0.0 1011176
15:00+22ссз710760 0.0 1010134
18:00+23сз57750 0.0 100964
21:00+22ссз58800 0.1 101092